[[{"header":{"parameterUnit":"m.s-1","parameterCategory":1,"la1":30.2991,"la2":30.254,"lo1":-89.0895,"lo2":-89.0444,"dy":0.0017,"dx":0.0017,"nx":28,"ny":28,"refTime":"2025-04-16T21:00:00:Z","depth":0,"parameterNumber":2,"parameterNumberName":"U-component_of_WINDS"},"data":[0,0,0,0,0,0,0,0,0,0,0,0,0,0,0,0,0,0,0,0,0,0,0,0,0,0,0,0,0,0,0,0,0,0,0,0,0,0,0,0,0,0,0,0,0,0,0,0,0,0,0,0,0,0,0,0,0,0,-2.3943,-2.3944,0,-2.4013,-2.4014,-2.4015,-2.4028,-2.4027,-2.4027,-2.4026,-2.4097,-2.4099,-2.4102,0,0,0,0,0,0,0,0,0,0,0,0,0,-2.3822,-2.3824,-2.3943,-2.3944,-2.3945,-2.4013,-2.4014,-2.4015,-2.4028,-2.4027,-2.4027,-2.4026,-2.4096,-2.4099,-2.4102,0,0,0,0,0,0,0,0,0,0,0,0,0,-2.3881,-2.3824,-2.3943,-2.396,-2.3962,-2.4013,-2.4014,-2.4015,-2.4028,-2.4027,-2.4026,-2.4026,-2.4095,-2.4099,-2.4102,-2.4141,0,0,-2.4113,-2.4115,0,0,0,0,0,0,0,0,-2.3878,-2.3886,-2.3956,-2.3959,-2.3961,-2.4011,-2.3997,-2.4057,-2.4028,-2.4003,-2.4026,-2.4025,-2.4069,-2.4075,-2.409,-2.4144,-2.4147,-2.4114,-2.4116,-2.4117,-2.4118,0,0,0,0,0,0,0,-2.3874,-2.3883,-2.3971,-2.3957,-2.396,-2.3964,-2.3971,-2.4008,-2.404,-2.4005,-2.4006,-2.4014,-2.407,-2.4086,-2.4091,-2.4148,-2.4114,-2.4117,-2.4119,-2.412,-2.4239,-2.424,0,0,0,0,0,0,-2.3867,-2.3879,-2.3969,-2.3973,-2.3917,-2.3967,-2.3975,-2.3996,-2.4039,-2.4045,-2.4015,-2.4015,-2.408,-2.4087,-2.4094,-2.4142,-2.4117,-2.4121,-2.4123,-2.4238,-2.4239,-2.424,0,0,0,0,0,0,-2.3864,-2.3874,-2.3966,-2.3926,-2.3938,-2.397,-2.3993,-2.3998,-2.4014,-2.4047,-2.4053,-2.4025,-2.408,-2.4089,-2.4129,-2.4144,-2.4122,-2.4126,-2.4237,-2.4238,-2.424,-2.4238,0,0,0,0,0,0,-2.386,-2.3873,-2.3888,-2.3927,-2.394,-2.4,-2.3994,-2.4,-2.402,-2.402,-2.4058,-2.4064,-2.408,-2.4124,-2.4133,-2.4149,-2.4128,-2.4235,-2.4237,-2.4239,-2.4237,-2.4239,-2.4241,0,0,0,0,0,-2.3856,-2.3885,-2.3889,-2.39,-2.396,-2.4001,-2.4009,-2.4027,-2.4021,-2.4036,-2.4058,-2.4062,-2.4142,-2.4128,-2.4138,-2.4156,-2.4235,-2.4237,-2.4239,-2.4236,-2.4239,-2.4241,0,0,0,0,0,0,-2.3847,-2.389,-2.3895,-2.3937,-2.3965,-2.4003,-2.4023,-2.403,-2.406,-2.4059,-2.408,-2.4089,-2.4128,-2.4146,-2.413,-2.4196,-2.4188,-2.4192,-2.4182,-2.4185,-2.4187,-2.4181,-2.4131,0,0,0,0,0,-2.385,-2.388,-2.3916,-2.395,-2.3964,-2.3991,-2.401,-2.4021,-2.4051,-2.4063,-2.4087,-2.4116,-2.4147,-2.4167,-2.4198,-2.424,-2.4249,-2.4257,-2.426,-2.4261,-2.4264,-2.4288,-2.4292,-2.4248,-2.4248,-2.4247,0,0,-2.3856,-2.3884,-2.3901,-2.3949,-2.3972,-2.4002,-2.4001,-2.4033,-2.4056,-2.4068,-2.4107,-2.4127,-2.416,-2.4201,-2.4221,-2.4218,-2.4279,-2.4264,-2.4265,-2.4268,-2.4291,-2.4295,-2.4299,-2.4249,-2.4249,-2.4249,0,0,-2.3883,-2.3907,-2.3938,-2.3961,-2.3996,-2.4015,-2.4022,-2.4059,-2.4072,-2.4112,-2.4122,-2.415,-2.4203,-2.4227,-2.4246,-2.4283,-2.4288,-2.4292,-2.4303,-2.4326,-2.433,-2.4333,-2.4345,-2.435,-2.4296,-2.4296,-2.4296,0,-2.3886,-2.3933,-2.3953,-2.3985,-2.4005,-2.4019,-2.405,-2.4071,-2.4115,-2.4129,-2.4125,-2.4193,-2.4216,-2.4263,-2.4272,-2.4288,-2.4296,-2.4287,-2.4328,-2.4331,-2.4334,-2.4346,-2.4351,-2.4296,-2.4296,-2.4296,-2.4296,0,-2.3935,-2.3967,-2.3987,-2.4029,-2.4052,-2.4084,-2.4108,-2.413,-2.414,-2.4158,-2.4199,-2.4228,-2.4265,-2.4277,-2.4288,-2.4326,-2.4323,-2.4323,-2.4316,-2.4338,-2.435,-2.4355,-2.4296,-2.4296,-2.4296,-2.4296,0,0,-2.3956,-2.4009,-2.4017,-2.4036,-2.4076,-2.4101,-2.4134,-2.417,-2.4187,-2.4217,-2.4245,-2.429,-2.4291,-2.4312,-2.4326,-2.4346,-2.4373,-2.4344,-2.4345,-2.4347,-2.4416,-2.4415,-2.442,-2.4377,-2.4378,-2.4379,-2.4413,0,-2.3987,-2.4045,-2.4064,-2.4112,-2.4142,-2.4156,-2.4184,-2.4211,-2.423,-2.4258,-2.4279,-2.431,-2.4309,-2.4322,-2.4343,-2.4365,-2.4387,-2.4363,-2.4402,-2.4403,-2.4392,-2.4426,-2.4425,-2.4456,-2.4418,-2.4419,-2.4419,0,-2.403,-2.4061,-2.4112,-2.4149,-2.4162,-2.4187,-2.4222,-2.4249,-2.4281,-2.4293,-2.4317,-2.4329,-2.4364,-2.4355,-2.4403,-2.4386,-2.4404,-2.4417,-2.4419,-2.4422,-2.4412,-2.4429,-2.4466,-2.447,-2.4427,-2.4426,-2.4426,0,-2.404,-2.4094,-2.4131,-2.4148,-2.4192,-2.4209,-2.4228,-2.426,-2.428,-2.4311,-2.4325,-2.436,-2.4378,-2.4405,-2.4426,-2.4418,-2.4471,-2.4465,-2.4482,-2.4481,-2.4491,-2.449,-2.453,-2.4504,-2.4504,-2.4504,-2.4504,0,-2.4071,-2.4102,-2.4136,-2.4159,-2.4194,-2.4216,-2.425,-2.427,-2.4298,-2.4325,-2.434,-2.4365,-2.4391,-2.442,-2.4437,-2.4473,-2.4482,-2.4492,-2.4496,-2.449,-2.4489,-2.4501,-2.4499,-2.4506,-2.4505,-2.4505,-2.4505,0,-2.4087,-2.4111,-2.4153,-2.4192,-2.4203,-2.4226,-2.426,-2.4282,-2.4302,-2.4336,-2.4345,-2.4376,-2.4411,-2.4435,-2.4479,-2.4491,-2.453,-2.4534,-2.4519,-2.452,-2.4536,-2.4534,-2.4584,-2.4591,-2.4562,-2.4562,-2.4562,0,-2.4105,-2.4128,-2.417,-2.4189,-2.4209,-2.424,-2.4261,-2.4285,-2.4306,-2.4345,-2.4363,-2.4399,-2.4429,-2.4483,-2.451,-2.4544,-2.4548,-2.4564,-2.4553,-2.4547,-2.4547,-2.4545,-2.4547,-2.4565,-2.4565,-2.4565,-2.4565,0,-2.4134,-2.4145,-2.4175,-2.421,-2.4235,-2.4264,-2.4293,-2.4308,-2.4336,-2.436,-2.4396,-2.4419,-2.4464,-2.4499,-2.4536,-2.4556,-2.4565,-2.4568,-2.4574,-2.4567,-2.4557,-2.4562,-2.4522,-2.4567,-2.4567,-2.4566,-2.4566,-2.4566,-2.4151,-2.4172,-2.4205,-2.4238,-2.4263,-2.4289,-2.4313,-2.4336,-2.4366,-2.4405,-2.4417,-2.4454,-2.4486,-2.4537,-2.4557,-2.4587,-2.4585,-2.4594,-2.4596,-2.4597,-2.4596,-2.4554,-2.4594,-2.4594,-2.4594,-2.4594,-2.4594,0,-2.4179,-2.4201,-2.4232,-2.4272,-2.4298,-2.4305,-2.4338,-2.4359,-2.4391,-2.4421,-2.445,-2.4491,-2.4526,-2.4555,-2.4591,-2.4608,-2.4613,-2.4617,-2.4615,-2.4619,-2.4596,-2.4587,-2.4612,-2.4612,-2.4612,-2.4612,-2.4612,-2.4612,-2.4197,-2.4234,-2.4249,-2.4299,-2.4321,-2.4357,-2.4375,-2.44,-2.4423,-2.4468,-2.4497,-2.4516,-2.4546,-2.4584,-2.4616,-2.4624,-2.4636,-2.4638,-2.4646,-2.4623,-2.4621,-2.4619,-2.4611,-2.4641,-2.4641,-2.4668,-2.4668,-2.4668]},{"header":{"parameterUnit":"m.s-1","parameterCategory":1,"la1":30.2991,"la2":30.254,"lo1":-89.0895,"lo2":-89.0444,"dy":0.0017,"dx":0.0017,"nx":28,"ny":28,"refTime":"2025-04-16T21:00:00:Z","depth":0,"parameterNumber":3,"parameterNumberName":"V-component_of_WINDS"},"data":[0,0,0,0,0,0,0,0,0,0,0,0,0,0,0,0,0,0,0,0,0,0,0,0,0,0,0,0,0,0,0,0,0,0,0,0,0,0,0,0,0,0,0,0,0,0,0,0,0,0,0,0,0,0,0,0,0,0,3.6709,3.671,0,3.6788,3.6789,3.679,3.6836,3.6837,3.6837,3.6837,3.6913,3.6915,3.6917,0,0,0,0,0,0,0,0,0,0,0,0,0,3.6595,3.6597,3.6709,3.671,3.6711,3.6788,3.6789,3.679,3.6836,3.6837,3.6837,3.6837,3.6913,3.6915,3.6917,0,0,0,0,0,0,0,0,0,0,0,0,0,3.6656,3.6598,3.6709,3.6743,3.6747,3.6788,3.6789,3.679,3.6836,3.6837,3.6837,3.6837,3.6912,3.6915,3.6917,3.6928,0,0,3.6926,3.6927,0,0,0,0,0,0,0,0,3.6653,3.666,3.6737,3.6741,3.6746,3.6803,3.6777,3.6836,3.6836,3.6802,3.6837,3.6837,3.6876,3.6882,3.6896,3.6931,3.6934,3.6926,3.6928,3.6929,3.6929,0,0,0,0,0,0,0,3.6648,3.6657,3.674,3.6738,3.6743,3.6754,3.6763,3.6788,3.6836,3.6805,3.6809,3.6818,3.6878,3.6893,3.6898,3.6936,3.6926,3.6928,3.693,3.6931,3.6986,3.6985,0,0,0,0,0,0,3.6639,3.6653,3.6738,3.6742,3.6699,3.6756,3.6766,3.6784,3.6836,3.6844,3.6818,3.682,3.6888,3.6894,3.69,3.6918,3.6929,3.6931,3.6933,3.6986,3.6986,3.6985,0,0,0,0,0,0,3.6637,3.6646,3.6734,3.6699,3.6711,3.6758,3.6777,3.6785,3.68,3.6845,3.6854,3.6824,3.6888,3.6897,3.6921,3.6921,3.6932,3.6935,3.6986,3.6986,3.6985,3.6951,0,0,0,0,0,0,3.6633,3.6645,3.665,3.6699,3.6713,3.6755,3.6777,3.6787,3.6805,3.6809,3.6854,3.6861,3.6889,3.6917,3.6924,3.6925,3.6937,3.6986,3.6986,3.6986,3.6952,3.6949,3.6947,0,0,0,0,0,3.6629,3.6636,3.665,3.666,3.672,3.6755,3.6762,3.6796,3.6805,3.681,3.684,3.686,3.692,3.6919,3.6927,3.6929,3.6986,3.6986,3.6986,3.6953,3.695,3.6947,0,0,0,0,0,0,3.6584,3.6643,3.6659,3.6682,3.6713,3.6762,3.677,3.6791,3.6819,3.6821,3.686,3.6869,3.6891,3.6912,3.691,3.6943,3.6955,3.6957,3.6928,3.6925,3.6923,3.6917,3.6939,0,0,0,0,0,3.6577,3.6601,3.6651,3.6666,3.6681,3.6723,3.6739,3.6762,3.6795,3.6808,3.6839,3.6869,3.6895,3.6911,3.6937,3.6955,3.6966,3.6961,3.6958,3.6956,3.6956,3.6969,3.6968,3.6984,3.6984,3.6984,0,0,3.6562,3.6597,3.661,3.6658,3.6685,3.6708,3.6733,3.6757,3.6774,3.6811,3.6837,3.6861,3.6897,3.6919,3.693,3.6938,3.6954,3.6955,3.6953,3.6955,3.6968,3.6967,3.6966,3.6984,3.6984,3.6984,0,0,3.6548,3.6576,3.6594,3.6621,3.6662,3.669,3.6694,3.674,3.6758,3.6785,3.6814,3.6835,3.6878,3.6903,3.6922,3.6919,3.6939,3.6926,3.6912,3.6924,3.6923,3.6922,3.6922,3.6921,3.6926,3.6926,3.6926,0,3.6524,3.6562,3.6599,3.6622,3.6643,3.6679,3.6697,3.672,3.6767,3.678,3.6788,3.6845,3.6871,3.69,3.69,3.6913,3.6919,3.6921,3.692,3.692,3.6919,3.692,3.692,3.6924,3.6925,3.6925,3.6925,0,3.6531,3.6557,3.6565,3.6612,3.6634,3.6653,3.6693,3.671,3.6732,3.6759,3.6786,3.682,3.6855,3.6863,3.6883,3.6896,3.6899,3.6913,3.6927,3.6916,3.6917,3.6917,3.6922,3.6923,3.6923,3.6924,0,0,3.649,3.6559,3.6561,3.6584,3.6632,3.6652,3.6674,3.671,3.6724,3.6755,3.6774,3.6811,3.6825,3.6846,3.6869,3.6879,3.6877,3.6893,3.6894,3.6889,3.6893,3.6883,3.6883,3.689,3.689,3.689,3.6891,0,3.6483,3.6526,3.6561,3.659,3.6614,3.665,3.6669,3.67,3.6726,3.675,3.6778,3.6804,3.682,3.6833,3.6845,3.6874,3.6878,3.6875,3.6908,3.6909,3.6899,3.6883,3.6872,3.6871,3.6891,3.6891,3.6891,0,3.6481,3.6514,3.6546,3.6594,3.6605,3.6622,3.6658,3.6681,3.6717,3.6735,3.676,3.6785,3.6809,3.682,3.6853,3.6851,3.6866,3.6883,3.6883,3.6888,3.69,3.6888,3.6871,3.6871,3.6892,3.6892,3.6892,0,3.645,3.6501,3.6527,3.6545,3.6601,3.6612,3.6636,3.6673,3.6693,3.6724,3.6737,3.6769,3.6787,3.6812,3.6845,3.685,3.6876,3.6889,3.6891,3.6891,3.6895,3.6895,3.6881,3.6904,3.6904,3.6904,3.6904,0,3.644,3.6458,3.6514,3.653,3.6552,3.6592,3.6612,3.6638,3.6671,3.6693,3.6725,3.6744,3.6787,3.6811,3.6837,3.6861,3.6868,3.6884,3.689,3.6881,3.688,3.6893,3.6894,3.6904,3.6904,3.6904,3.6904,0,3.6408,3.6446,3.6478,3.6529,3.6543,3.6556,3.66,3.6617,3.6645,3.6672,3.668,3.6724,3.6755,3.679,3.6831,3.6849,3.6872,3.6881,3.686,3.6864,3.6865,3.6865,3.686,3.6861,3.6882,3.6881,3.6881,0,3.6399,3.6415,3.6469,3.6487,3.651,3.6537,3.6559,3.6598,3.6619,3.6662,3.6674,3.6707,3.6736,3.6782,3.6817,3.6849,3.686,3.6856,3.6865,3.6856,3.6862,3.6861,3.6863,3.6854,3.6854,3.6853,3.6853,0,3.638,3.6399,3.6429,3.6466,3.6491,3.6522,3.6553,3.6565,3.6611,3.6632,3.6665,3.6688,3.6731,3.6764,3.6801,3.6824,3.6846,3.685,3.6853,3.6844,3.6831,3.6839,3.6855,3.685,3.685,3.6851,3.6851,3.6851,3.6361,3.6377,3.6418,3.6451,3.648,3.6509,3.6528,3.656,3.6588,3.6628,3.6649,3.6681,3.6718,3.677,3.6793,3.6818,3.6826,3.6829,3.683,3.683,3.6828,3.6827,3.6825,3.6825,3.6825,3.6825,3.6825,0,3.6345,3.6374,3.6403,3.6448,3.6474,3.6494,3.6531,3.6551,3.6579,3.6613,3.6641,3.6679,3.6711,3.6749,3.6784,3.6797,3.6808,3.6804,3.6804,3.6809,3.6819,3.6814,3.6795,3.6795,3.6795,3.6795,3.6795,3.6795,3.634,3.6369,3.6392,3.6436,3.6464,3.6498,3.6517,3.6544,3.6571,3.6613,3.6641,3.6666,3.6701,3.6739,3.6769,3.6779,3.6791,3.6785,3.6798,3.6806,3.6809,3.6811,3.6807,3.6787,3.6786,3.6787,3.6787,3.6787]}]]